Location: Unspecified
(0.0000°N, 0.0000°E)
Time: 21:17:55
(UTC+00:00)

CZ-3C DEB (VEB) - Pass Details

Date: 10 March 2026
Orbit: 224 x 25513 km, 21.0° (Epoch: 10 April)

Event Time Altitude Azimuth Distance (km) Brightness Sun altitude
Rises 19:05:21 0° 272° (W) 3,158 ? -13.8°
Reaches altitude 10° 19:06:48 10° 279° (W) 2,671 ? -14.1°
Maximum altitude 19:13:00 51° 356° (N) 2,552 ? -15.7°
Enters shadow 19:52:22 15° 64° (ENE) 14,539 ? -25.5°
Exits shadow 20:21:15 10° 68° (ENE) 20,322 ? -32.7°
Drops below altitude 10° 20:23:49 10° 68° (ENE) 20,745 ? -33.3°
Sets 01:16:59 0° 95° (E) 18,953 ? -72.9°
